Dewpoint
52 51 51 51 51 51 51 50 50 49 50 50 50 50 50 50 51 50 50 51 51 52 53 53 54 54 55 55 54 55 55 49 45 40 35 31 48 57 54 55 57 57 58 19 17 16 14 14 14 12 9 9 10 11 13 13 10 9 13 13 13 11 8 4 1 -2 -2 0 6 7 4 1 5 8 11 15 15 12 14 17 19 26 32 34 36 40 43 45
52 52 52 51 51 51 50 49 50 49 49 50 49 50 50 50 50 51 51 51 52 52 53 53 54 54 55 54 54 55 53 50 45 38 37 44 55 57 59 60 59 60 50 14 13 13 13 13 12 9 7 8 10 10 11 11 10 8 11 10 6 9 7 0 1 6 -7 1 7 5 6 4 3 7 11 12 13 11 12 18 19 23 31 35 38 40 43 50
52 51 51 51 51 50 49 49 50 51 50 49 49 50 50 50 50 50 51 52 52 52 53 53 54 54 54 54 55 55 52 46 39 36 33 54 56 58 59 58 59 60 16 11 14 16 14 11 8 6 6 8 10 8 8 8 11 10 12 7 4 5 5 2 3 6 5 5 6 6 5 3 3 7 10 7 9 9 12 16 16 20 25 32 36 40 43 47
52 52 51 52 51 51 49 50 50 50 50 49 49 50 50 50 50 50 51 52 52 53 53 54 54 54 55 55 55 54 50 48 41 36 21 57 57 57 61 56 59 53 20 18 20 22 19 10 6 5 6 9 10 7 6 8 12 8 8 7 4 3 7 4 6 8 7 7 6 5 4 0 5 5 8 5 5 10 13 13 15 18 20 30 35 41 45 47
52 52 52 51 51 50 51 50 49 49 49 50 51 50 50 50 50 51 51 52 52 53 53 54 54 55 54 55 55 52 48 41 24 21 35 59 57 59 57 60 54 30 24 22 22 20 16 11 6 6 8 9 10 5 6 7 8 5 4 5 6 5 4 7 8 6 7 8 6 6 4 -2 7 5 9 6 7 8 12 11 16 16 19 32 38 41 42 43
52 52 51 50 50 50 50 50 50 50 50 51 51 51 50 51 51 52 52 52 53 53 54 54 54 54 55 55 53 46 44 20 22 23 57 58 57 58 59 60 61 37 25 24 23 18 13 14 14 10 8 10 8 7 6 7 6 6 5 2 2 3 7 10 7 9 8 7 5 5 5 1 8 7 9 8 7 12 14 15 17 17 22 34 41 43 45 43
51 52 52 51 50 51 51 51 51 51 50 50 50 50 51 51 51 52 52 52 53 53 54 54 54 54 55 55 50 45 41 40 21 27 59 58 59 57 63 58 57 29 24 24 24 16 11 13 14 11 9 9 10 8 5 4 6 5 4 4 4 5 8 10 9 10 9 6 3 6 7 4 6 6 7 6 6 11 13 15 18 23 29 34 40 46 46 46
52 52 52 51 51 51 50 51 51 50 50 50 51 51 51 51 51 52 52 52 53 53 54 54 54 54 55 48 39 40 36 38 22 27 59 60 56 50 58 36 33 30 24 24 22 17 11 12 9 10 8 7 8 7 7 4 4 5 5 6 7 3 7 9 9 7 5 6 5 9 11 9 9 7 7 5 6 11 11 15 17 25 29 35 44 43 47 48
52 52 52 51 51 51 51 51 51 51 51 51 51 51 52 52 52 52 52 53 53 53 54 54 54 54 55 51 40 36 36 29 23 26 45 32 30 29 36 33 33 31 27 25 23 17 12 10 10 8 5 4 4 4 5 3 6 5 5 6 8 9 8 8 9 7 6 6 8 9 10 10 10 8 10 9 8 10 13 12 16 24 31 33 38 47 46 48
53 52 52 52 52 51 51 51 51 51 51 52 51 52 52 52 52 52 52 53 53 54 54 54 54 54 50 43 39 37 23 26 24 24 21 21 26 25 28 34 29 29 27 21 16 16 13 10 6 6 6 5 6 5 4 7 6 5 2 -0 6 10 8 8 8 7 6 6 6 6 7 7 6 9 9 12 12 11 12 12 11 18 33 33 36 45 46 47
52 52 52 52 52 51 51 51 52 51 51 52 52 52 52 52 52 52 53 53 53 54 54 54 54 54 47 42 40 36 20 21 23 21 20 25 26 24 27 22 27 18 19 18 13 11 10 12 13 11 8 5 3 3 4 5 3 5 7 0 7 9 8 8 8 5 5 5 6 7 4 3 3 7 7 7 10 10 13 11 10 13 24 29 35 39 41 47
52 52 52 52 52 52 52 52 52 52 52 52 52 52 52 52 52 53 53 53 54 54 54 54 54 52 46 41 37 31 21 16 21 20 21 19 18 20 20 17 16 16 16 15 11 11 14 14 15 14 6 8 4 2 3 5 6 7 8 9 8 8 9 9 7 5 9 5 5 6 4 1 1 2 6 5 3 9 11 10 9 13 18 26 32 35 39 40
52 52 52 52 52 52 52 52 52 53 52 52 53 53 53 52 53 53 53 53 54 54 54 54 54 50 49 41 39 31 22 19 17 18 16 16 16 16 16 16 15 16 16 17 19 17 16 16 16 13 10 7 4 1 6 4 5 6 6 8 7 7 7 7 7 5 6 4 5 6 6 4 1 2 4 5 8 10 10 9 9 13 20 22 32 32 37 42
52 52 52 52 52 53 53 53 53 53 53 53 53 53 53 53 53 53 53 53 54 54 54 55 54 49 42 42 25 26 25 25 19 18 16 14 13 14 14 15 15 16 16 18 18 19 19 17 14 14 14 11 5 9 6 4 5 2 2 5 6 4 5 7 7 6 4 4 7 7 9 3 2 1 4 5 8 9 11 10 12 11 19 23 31 33 34 38
51 52 52 52 52 53 53 52 53 53 53 53 53 53 54 54 53 53 53 53 54 54 55 55 52 48 44 40 25 26 54 24 20 18 16 14 12 11 12 14 14 16 18 17 16 17 16 16 16 12 11 9 8 8 4 4 4 3 1 2 2 2 2 2 8 6 4 7 5 4 10 4 2 1 1 5 9 10 12 12 12 17 20 28 29 30 30 35
51 51 51 51 52 52 53 53 53 52 52 53 53 53 53 53 54 54 54 53 54 55 53 50 49 41 36 31 26 45 26 17 19 19 15 14 12 11 12 13 15 17 18 18 16 17 17 14 11 8 7 6 5 6 5 2 3 3 2 13 5 2 1 1 6 5 5 5 5 4 5 3 3 1 10 13 11 11 12 13 17 16 22 29 29 31 31 34
51 51 51 52 52 52 52 52 53 53 53 52 53 53 53 53 53 53 53 53 52 53 49 44 41 44 38 26 27 24 22 22 20 18 15 14 13 12 12 13 16 16 17 16 17 20 16 14 15 15 12 16 13 9 5 6 6 5 3 4 6 4 4 1 5 5 6 6 3 6 5 6 6 11 11 12 11 12 14 17 20 24 26 29 29 27 27 34
51 51 51 51 51 52 52 52 52 52 52 53 53 52 51 53 54 53 52 52 51 47 47 44 40 38 33 29 20 21 23 19 17 16 14 13 13 13 13 13 15 15 20 16 16 16 19 15 14 15 19 21 16 10 8 6 12 10 11 10 8 4 5 5 5 5 6 6 9 8 9 9 8 9 14 14 12 13 18 17 20 20 22 25 26 26 26 28
51 51 51 51 51 52 52 52 52 52 52 52 53 53 53 52 51 49 44 42 43 44 40 34 37 29 18 22 22 23 22 17 16 14 12 13 13 13 14 15 13 14 19 20 18 13 19 19 25 19 16 16 13 11 8 9 21 22 20 18 15 13 9 5 8 8 9 11 8 10 10 9 11 10 11 17 18 18 17 23 29 26 21 27 26 25 27 30
51 51 51 51 51 52 52 52 52 52 52 52 54 54 54 52 45 48 45 44 40 42 33 23 26 23 19 18 20 22 22 20 16 15 12 12 13 12 12 13 16 14 19 23 21 19 26 17 19 18 15 22 25 23 22 29 25 24 22 20 17 10 9 10 12 11 16 14 13 13 13 12 12 12 14 15 19 20 18 21 27 25 25 23 23 28 29 33
51 50 51 51 51 52 52 52 52 52 52 51 52 52 41 33 32 33 36 42 42 40 33 21 19 14 21 20 22 20 18 17 15 12 12 14 15 12 11 12 15 21 18 23 28 32 30 24 22 23 25 32 32 32 32 28 27 23 21 19 15 14 14 11 21 23 21 24 16 17 16 16 16 16 16 15 19 19 21 21 24 22 22 25 26 27 29 32
50 50 51 51 51 52 52 52 52 52 52 51 49 48 36 30 33 35 37 31 33 31 22 22 25 22 23 24 22 21 22 16 14 11 12 13 11 10 11 10 12 15 20 23 26 29 27 25 25 26 31 33 32 31 29 28 26 23 18 16 13 11 9 12 21 23 22 25 19 16 16 16 16 14 13 17 19 22 23 23 24 25 24 24 23 27 32 33
50 50 51 51 51 52 52 53 52 51 51 53 50 51 27 29 33 36 36 34 35 26 22 22 20 16 17 21 21 22 20 19 17 11 12 13 12 11 10 9 13 15 19 25 22 27 26 20 24 26 30 30 27 26 26 27 28 24 17 19 13 10 9 8 28 24 27 25 21 19 17 18 20 18 14 16 17 23 31 30 33 30 25 25 26 26 31 32
50 50 51 51 51 51 52 52 51 52 52 44 45 26 29 30 33 36 40 35 31 24 23 24 22 20 20 21 22 18 18 19 17 11 14 12 11 11 11 9 9 13 11 16 22 21 17 27 29 31 28 29 28 26 25 25 20 24 25 18 14 15 13 12 20 26 29 29 31 23 22 16 12 11 16 17 20 26 23 23 26 27 26 29 35 34 35 32
50 50 51 51 51 52 51 52 46 39 44 41 32 29 29 34 41 38 40 39 31 29 23 23 25 23 24 26 23 19 20 21 17 11 13 12 11 9 8 9 9 8 8 10 18 20 18 26 33 27 25 25 25 24 25 27 20 20 25 25 21 21 21 19 22 21 18 21 25 24 18 18 16 10 10 17 20 20 20 21 19 23 26 24 25 31 34 41
51 51 51 51 51 51 51 49 39 33 33 33 32 30 29 35 41 43 43 38 36 20 18 18 19 20 24 20 21 17 16 16 19 14 12 13 17 9 12 8 9 10 12 10 10 18 21 30 28 27 26 25 24 22 25 26 22 20 19 22 22 20 22 21 19 20 16 10 14 26 17 16 20 14 11 14 17 20 21 20 18 20 22 22 25 28 32 36
51 51 51 51 51 51 50 44 35 33 32 34 35 33 30 41 49 46 43 36 30 20 24 17 17 20 21 20 18 17 17 15 17 12 11 13 11 14 11 11 10 9 12 22 22 12 22 26 24 25 25 22 22 18 24 22 17 15 26 19 17 18 20 20 18 14 13 19 26 24 20 20 20 16 11 13 16 14 16 17 20 17 21 21 23 25 32 32
51 51 51 51 51 50 52 51 42 35 33 34 32 29 31 46 45 51 45 28 23 17 17 18 15 17 18 16 13 14 16 14 11 11 12 11 12 11 9 8 9 9 13 17 13 28 28 24 26 24 23 19 16 17 23 23 17 17 27 23 20 17 19 18 15 14 16 17 12 20 19 19 18 18 17 11 12 14 15 18 18 18 17 18 21 23 26 31
51 52 52 51 51 51 52 49 41 31 27 33 31 32 33 47 46 41 33 24 25 16 20 16 19 16 11 12 10 8 9 13 10 12 12 12 11 10 11 8 9 11 12 18 13 22 21 19 24 23 18 17 16 12 13 21 20 22 18 18 21 21 20 19 14 13 16 17 17 16 21 17 12 17 16 14 7 10 17 19 19 21 21 17 17 23 26 23
52 52 51 51 50 51 48 50 43 33 33 33 35 37 44 44 44 38 31 21 21 19 14 14 12 15 16 13 15 11 8 7 7 12 12 6 8 9 11 11 10 13 12 13 12 13 17 26 24 17 18 16 14 13 13 13 18 23 25 21 17 16 14 14 16 15 19 15 13 16 17 13 9 13 14 14 18 16 17 17 19 19 21 18 24 20 22 21
52 51 50 48 54 41 39 40 39 37 34 43 43 44 45 45 37 29 22 26 19 18 17 14 10 13 11 13 15 14 13 13 9 12 6 5 11 7 7 8 11 14 14 16 16 12 10 13 17 13 15 12 9 11 18 16 16 15 16 15 13 14 14 15 16 18 16 13 14 13 15 20 12 11 13 14 15 16 18 17 17 18 20 21 27 21 22 23
51 51 51 52 54 52 49 39 41 39 44 48 49 46 41 32 37 23 19 17 9 19 16 19 16 14 14 10 11 12 15 11 12 11 8 6 12 9 7 8 15 5 6 8 9 14 14 9 9 11 14 3 7 8 10 13 18 12 13 13 12 11 13 13 15 15 14 15 17 14 16 14 10 15 15 16 12 17 19 14 14 14 14 25 22 24 24 24
50 50 51 50 50 55 43 44 45 49 52 51 49 43 36 28 22 14 17 9 15 18 14 13 13 15 12 10 9 10 10 11 14 13 11 10 9 12 9 6 7 13 11 21 15 16 13 11 11 11 9 7 2 4 4 7 13 11 9 11 11 8 9 11 9 13 13 16 16 16 22 16 13 12 16 17 18 12 15 22 19 12 24 27 22 26 23 26
50 50 55 55 52 45 46 54 49 49 52 51 44 39 32 25 20 22 14 7 13 16 14 7 7 9 9 6 2 -1 5 13 13 13 13 14 11 17 13 9 9 15 18 19 11 17 13 15 13 13 14 11 6 4 8 12 12 10 10 9 12 12 12 12 9 11 12 12 15 15 18 18 18 21 19 19 17 12 12 10 18 25 20 34 22 19 21 21
49 51 54 58 61 51 48 45 52 54 55 48 40 30 25 21 18 15 17 17 14 12 10 7 8 6 4 1 -0 -3 4 10 3 6 15 14 16 15 17 15 17 10 16 15 20 20 7 10 12 9 9 10 9 9 9 8 8 9 12 11 13 17 15 10 14 13 13 14 15 18 18 18 19 19 20 19 14 14 13 12 19 19 18 24 27 23 20 23
50 56 56 59 39 40 43 42 47 49 46 40 33 25 20 22 17 12 14 16 13 11 13 7 -2 -5 -1 -1 -2 -0 8 11 9 6 9 9 7 9 9 14 17 17 21 17 20 13 8 9 10 7 7 8 10 15 15 12 11 14 5 11 9 16 14 19 21 22 24 17 13 18 20 16 16 13 16 16 14 12 13 11 11 16 16 28 26 20 19 20
49 54 53 40 37 39 43 43 41 45 42 39 31 24 25 20 12 12 20 16 12 7 5 6 9 4 11 10 11 5 11 15 16 8 9 6 10 5 3 10 10 17 16 19 18 12 15 12 11 8 8 7 12 13 13 10 7 6 9 8 8 7 17 18 13 16 15 13 16 18 22 19 12 15 10 12 15 15 15 12 12 25 23 20 21 30 24 17
52 50 43 39 37 41 42 45 48 45 40 36 29 35 24 20 19 19 18 15 10 5 6 10 13 6 9 13 11 8 11 11 15 9 8 6 10 7 7 12 17 15 16 18 18 20 15 11 8 7 8 9 6 8 9 9 8 6 5 6 8 11 10 15 14 10 11 12 12 15 11 14 9 13 11 12 12 15 15 17 13 16 20 22 24 22 22 26
49 47 45 38 35 38 44 49 47 44 41 31 29 26 23 20 17 18 17 16 11 9 11 8 9 8 11 14 12 11 9 11 9 9 8 12 9 22 12 16 14 18 19 19 20 23 24 18 14 12 11 10 10 7 8 8 5 6 9 9 9 12 14 14 16 12 12 9 12 14 9 11 13 12 13 11 15 17 15 20 25 16 19 30 29 29 28 31
44 44 37 40 31 39 42 48 46 43 38 29 26 25 17 14 14 16 17 19 15 11 13 13 11 14 15 16 13 15 14 13 12 11 7 14 6 21 10 17 14 18 20 21 20 20 21 25 17 16 15 16 13 12 9 8 13 12 14 13 14 20 22 17 20 12 13 14 13 12 12 13 17 18 15 13 15 19 20 21 25 25 22 22 26 37 35 38
48 38 35 37 30 37 40 42 42 36 30 25 20 22 22 20 19 15 10 21 20 14 9 10 12 13 15 14 13 10 11 11 10 10 11 10 9 11 16 18 21 19 19 19 18 27 22 21 18 18 17 16 14 12 8 6 7 11 13 16 14 17 17 16 19 22 21 19 17 13 12 15 19 24 24 21 27 22 17 15 23 18 20 37 31 44 39 41
45 32 30 35 38 37 32 29 30 36 28 24 26 23 16 29 13 9 10 15 16 15 15 13 14 16 17 15 13 10 10 9 9 11 10 9 5 7 21 20 19 20 20 21 20 34 30 26 20 19 18 17 17 17 16 15 15 13 16 16 13 22 25 20 19 20 23 18 15 16 17 20 23 23 22 23 23 19 21 21 21 21 31 34 35 34 46 43
26 23 36 31 38 35 33 31 29 25 27 27 26 23 17 17 16 15 15 12 12 13 14 15 16 16 17 18 17 15 14 17 13 11 8 7 9 22 22 21 20 19 17 18 13 28 30 25 19 13 12 11 11 10 11 11 9 9 13 15 13 13 18 13 11 13 15 17 16 17 17 17 22 24 25 27 24 23 28 25 24 25 29 33 36 39 37 40
32 32 29 28 35 28 27 26 18 15 21 18 23 24 22 19 20 16 11 12 14 19 20 18 16 14 15 10 13 12 13 18 11 9 9 6 9 22 19 21 20 18 17 27 23 30 22 23 20 17 15 14 14 11 10 10 11 16 12 13 12 13 21 22 21 22 21 22 19 18 18 19 26 26 23 23 22 22 22 22 26 25 30 31 35 43 43 39
38 32 29 20 28 29 21 19 18 15 19 19 21 23 21 13 15 22 20 16 13 10 15 16 15 16 16 15 16 15 12 12 18 13 12 13 13 13 15 13 16 16 27 27 31 22 21 23 22 17 15 12 9 6 3 8 11 13 15 16 16 13 18 18 16 16 16 21 20 20 19 22 23 24 22 23 22 21 22 22 23 23 25 24 27 38 41 42
22 23 27 22 22 20 27 27 26 23 19 24 27 22 14 17 14 12 18 19 16 12 8 7 9 10 9 11 15 14 10 11 13 17 10 11 10 8 9 8 18 11 35 34 26 21 23 25 23 21 17 13 13 10 14 11 11 9 11 11 13 16 16 19 17 17 16 19 18 19 20 23 19 18 17 18 21 20 21 22 20 17 20 22 25 25 27 34
24 28 25 22 19 22 22 19 22 21 18 23 21 20 20 23 20 13 19 19 14 20 21 20 19 20 22 19 22 19 17 15 15 18 19 15 14 13 12 12 10 22 36 26 22 19 20 18 20 22 19 14 13 10 9 8 8 8 9 12 9 11 15 16 16 14 17 19 14 18 19 21 18 17 17 18 20 19 21 21 20 20 21 22 23 24 30 19
22 26 27 30 23 18 23 22 21 18 14 14 18 22 21 22 23 23 16 16 19 21 21 18 15 16 16 20 21 21 20 20 21 23 20 19 16 16 11 9 8 19 23 12 20 22 21 17 19 20 17 14 14 12 12 12 10 9 10 14 14 12 15 19 21 16 17 15 13 21 24 23 20 17 18 18 20 21 21 21 21 21 17 16 19 20 19 18
27 25 31 35 24 22 21 23 27 21 20 19 20 21 22 19 20 18 18 19 20 24 18 23 21 18 16 16 18 19 23 21 23 23 23 21 21 21 20 19 19 18 16 17 15 20 18 15 17 16 16 15 14 13 12 11 10 10 13 11 10 14 18 16 17 16 15 19 20 21 22 23 23 18 17 19 22 20 18 18 19 15 16 19 18 20 20 20
32 29 27 27 28 25 26 31 32 26 25 26 24 26 20 23 24 19 17 19 22 22 19 23 20 18 15 14 14 17 21 22 24 23 25 28 28 25 24 25 20 19 15 15 14 19 20 17 22 19 17 13 13 14 12 9 11 12 9 6 6 8 7 10 14 18 21 20 21 23 24 24 23 23 19 20 21 17 16 14 15 17 18 21 19 18 20 21
36 39 32 25 28 26 26 26 22 22 20 19 17 21 23 20 21 17 18 19 22 23 19 19 17 19 18 18 20 19 22 29 28 28 27 28 26 24 22 23 15 20 15 17 21 23 20 16 15 15 14 16 11 10 8 9 10 10 12 15 14 14 18 20 19 22 19 20 22 25 23 23 22 20 20 17 13 13 16 18 21 26 26 26 24 24 23 22
35 36 37 32 29 30 24 25 23 21 19 23 26 24 20 18 14 12 20 15 15 13 13 13 19 18 20 23 22 22 23 25 26 26 25 24 24 23 20 18 17 18 17 18 20 17 16 17 14 12 10 13 12 12 8 13 15 11 15 19 16 16 13 13 13 17 20 24 22 20 19 20 17 20 19 18 19 20 21 25 28 27 26 25 26 27 27 28